Augusta, ME

6:19 PM EST on December 16, 2017 (GMT -0500)
Augusta State

Weather History for KAUG - September, 2013

Change the Weather History Date:

Tuesday, September 3, 2013

  Actual Average Record
Temperature  
Mean Temperature 70 °F 65 °F  
Max Temperature 78 °F 74 °F 95 °F (1999)
Min Temperature 64 °F 55 °F 43 °F (1992)
Degree Days  
Heating Degree Days 0 3  
Month to date heating degree days 7  
Since 1 July heating degree days 49  
Cooling Degree Days 6 2  
Month to date cooling degree days 6  
Year to date cooling degree days 363  
Growing Degree Days 20 (Base 50)    
Moisture  
Dew Point 65 °F    
Average Humidity 90    
Maximum Humidity 100    
Minimum Humidity 69    
Precipitation  
Precipitation 0.01 in 0.11 in 2.19 in (1972)
Month to date precipitation 0.33  
Year to date precipitation 26.51  
Sea Level Pressure  
Sea Level Pressure 29.73 in    
Wind  
Wind Speed 2 mph (South)    
Max Wind Speed 12 mph    
Max Gust Speed 16 mph    
Visibility 6 miles    
Events Fog , Thunderstorm    
T = Trace of Precipitation, MM = Missing Value Source: NWS Daily Summary

Daily Weather History Graph

Daily Weather History Graph

Search for Another Location

Airport or City:

Trip Planner

Search our weather history database for the weather conditions in past years. The results will help you decide how hot, cold, wet, or windy it might be!

Date:

Astronomy

Sep. 03, 2013 Rise Set
Actual Time 6:04 AM EDT 7:11 PM EDT
Civil Twilight 5:34 AM EDT 7:41 PM EDT
Nautical Twilight 4:59 AM EDT 8:16 PM EDT
Astronomical Twilight 4:21 AM EDT 8:54 PM EDT
Moon 4:13 AM EDT (9/3) 5:57 PM EDT (9/3)
Length of Visible Light 14h 06m
Length of Day
13h 06m
Waning Crescent, 3% of the Moon is Illuminated
Sep 3
Waning Crescent
Sep 5
New
Sep 12
First Quarter
Sep 19
Full
Sep 26
Last Quarter

Hourly Weather History & Observations

Time (EDT) Temp. Dew Point Humidity Pressure Visibility Wind Dir Wind Speed Gust Speed Precip Events Conditions
12:25 AM 64.4 °F 64.4 °F 100% 29.75 in 0.2 mi Calm Calm - N/A Fog Fog
12:50 AM 64.4 °F 64.4 °F 100% 29.75 in 0.5 mi Calm Calm - N/A Fog Fog
12:53 AM 64.9 °F 64.9 °F 100% 29.75 in 0.5 mi Calm Calm - N/A Fog Fog
1:14 AM 64.4 °F 64.4 °F 100% 29.75 in 1.2 mi Calm Calm - N/A   Overcast
1:24 AM 64.4 °F 64.4 °F 100% 29.74 in 0.5 mi Calm Calm - N/A Fog Fog
1:53 AM 64.9 °F 64.9 °F 100% 29.73 in 0.5 mi Calm Calm - N/A Fog Fog
2:04 AM 64.4 °F 64.4 °F 100% 29.72 in 0.2 mi ENE 3.5 mph - N/A Fog Fog
2:53 AM 64.9 °F 64.9 °F 100% 29.71 in 0.2 mi ENE 3.5 mph - N/A Fog Fog
3:48 AM 64.4 °F 64.4 °F 100% 29.72 in 0.2 mi NNW 3.5 mph - 0.01 in Fog Fog
3:53 AM 64.9 °F 64.9 °F 100% 29.72 in 0.2 mi NW 4.6 mph - 0.01 in Fog Fog
4:53 AM 64.9 °F 64.0 °F 97% 29.72 in 0.5 mi Calm Calm - N/A Fog Fog
5:12 AM 64.4 °F 64.4 °F 100% 29.72 in 0.2 mi Calm Calm - N/A Fog Fog
5:53 AM 64.9 °F 64.9 °F 100% 29.73 in 0.2 mi Calm Calm - N/A Fog Fog
6:39 AM 64.4 °F 64.4 °F 100% 29.74 in 0.5 mi Calm Calm - N/A Fog Fog
6:53 AM 64.9 °F 64.9 °F 100% 29.74 in 1.5 mi Calm Calm - N/A   Overcast
7:08 AM 64.4 °F 64.4 °F 100% 29.74 in 2.0 mi Calm Calm - N/A   Overcast
7:21 AM 64.4 °F 64.4 °F 100% 29.75 in 4.0 mi Calm Calm - N/A   Overcast
7:27 AM 64.4 °F 64.4 °F 100% 29.75 in 2.5 mi Calm Calm - N/A   Overcast
7:37 AM 64.4 °F 64.4 °F 100% 29.76 in 7.0 mi Calm Calm - N/A   Overcast
7:53 AM 64.9 °F 64.9 °F 100% 29.76 in 8.0 mi Calm Calm - N/A   Overcast
8:10 AM 64.4 °F 64.4 °F 100% 29.76 in 2.5 mi Calm Calm - N/A   Overcast
8:18 AM 66.2 °F 64.4 °F 94% 29.77 in 5.0 mi Calm Calm - N/A   Overcast
8:53 AM 66.9 °F 64.9 °F 93% 29.77 in 4.0 mi Calm Calm - N/A   Overcast
9:53 AM 68.0 °F 66.0 °F 93% 29.77 in 10.0 mi Calm Calm - N/A   Overcast
10:53 AM 69.1 °F 64.9 °F 87% 29.77 in 10.0 mi Calm Calm - N/A   Overcast
11:10 AM 69.8 °F 66.2 °F 88% 29.77 in 10.0 mi WNW 4.6 mph - N/A   Overcast
11:53 AM 71.1 °F 64.9 °F 81% 29.75 in 10.0 mi Variable 3.5 mph - N/A   Overcast
12:09 PM 71.6 °F 64.4 °F 78% 29.75 in 10.0 mi Calm Calm - N/A   Overcast
12:53 PM 73.0 °F 66.0 °F 79% 29.73 in 10.0 mi Calm Calm - N/A   Mostly Cloudy
1:53 PM 75.0 °F 66.9 °F 76% 29.73 in 10.0 mi SE 5.8 mph - N/A   Overcast
2:05 PM 75.2 °F 66.2 °F 73% 29.72 in 10.0 mi SSE 4.6 mph - N/A   Scattered Clouds
2:32 PM 75.2 °F 66.2 °F 73% 29.72 in 10.0 mi South 5.8 mph - N/A   Mostly Cloudy
2:53 PM 77.0 °F 66.0 °F 69% 29.70 in 10.0 mi SW 5.8 mph - N/A   Mostly Cloudy
3:39 PM 75.2 °F 66.2 °F 73% 29.70 in 10.0 mi South 4.6 mph - N/A   Mostly Cloudy
3:53 PM 77.0 °F 68.0 °F 74% 29.70 in 10.0 mi South 5.8 mph - N/A   Mostly Cloudy
4:32 PM 75.2 °F 66.2 °F 73% 29.69 in 10.0 mi SSE 8.1 mph - N/A Thunderstorm Overcast
4:46 PM 75.2 °F 68.0 °F 78% 29.69 in 10.0 mi South 11.5 mph 16.1 mph N/A   Mostly Cloudy
4:53 PM 75.9 °F 68.0 °F 76% 29.69 in 10.0 mi South 9.2 mph 16.1 mph N/A Thunderstorm Scattered Clouds
5:10 PM 75.2 °F 68.0 °F 78% 29.70 in 10.0 mi South 8.1 mph - N/A   Scattered Clouds
5:26 PM 73.4 °F 68.0 °F 83% 29.70 in 10.0 mi South 8.1 mph - N/A   Mostly Cloudy
5:53 PM 73.0 °F 66.9 °F 81% 29.70 in 10.0 mi South 6.9 mph - N/A   Partly Cloudy
6:53 PM 71.1 °F 68.0 °F 90% 29.70 in 10.0 mi South 6.9 mph - N/A   Mostly Cloudy
7:53 PM 70.0 °F 66.9 °F 90% 29.72 in 10.0 mi SSW 3.5 mph - N/A   Overcast
8:41 PM 69.8 °F 66.2 °F 88% 29.73 in 9.0 mi Calm Calm - N/A   Mostly Cloudy
8:53 PM 69.1 °F 66.9 °F 93% 29.73 in 8.0 mi South 4.6 mph - N/A   Mostly Cloudy
9:53 PM 68.0 °F 66.9 °F 96% 29.74 in 4.0 mi SSW 4.6 mph - N/A   Partly Cloudy
10:53 PM 66.9 °F 64.0 °F 90% 29.73 in 10.0 mi WSW 6.9 mph - N/A   Clear
11:53 PM 66.0 °F 61.0 °F 84% 29.74 in 10.0 mi West 4.6 mph - N/A   Clear